• In Sweden
  • List of Countries
  • For 7 days
  • Water Temperature
  • Satellite Maps
  • Weather Map
  • Weather Widgets
  • user-avatar
    Login

    Hourly Weather Novokorotkino

    Today, 23 May, Wednesday

    Time Temperature Precipitation Wind Pressure Humidity
    00:00 +3°C° 0 mm 1 mps 743 mmHg 78%
    01:00 +2°C° 0 mm 1 mps 743 mmHg 79%
    02:00 +2°C° 0 mm 1 mps 743 mmHg 80%
    03:00 +2°C° 0 mm 1 mps 743 mmHg 81%
    04:00 +2°C° 0 mm 0 mps 743 mmHg 77%
    05:00 +3°C° 0 mm 0 mps 743 mmHg 72%
    06:00 +5°C° 0 mm 1 mps 743 mmHg 68%
    07:00 +7°C° 0 mm 1 mps 743 mmHg 61%
    08:00 +7°C° 0 mm 2 mps 744 mmHg 54%
    09:00 +9°C° 0 mm 2 mps 744 mmHg 47%
    10:00 +10°C° 0 mm 3 mps 744 mmHg 47%
    11:00 +10°C° 0 mm 4 mps 744 mmHg 46%
    12:00 +10°C° 0 mm 4 mps 745 mmHg 47%
    13:00 +9°C° 0.1 mm 5 mps 745 mmHg 51%
    14:00 +8°C° 0.1 mm 5 mps 746 mmHg 54%
    15:00 +7°C° 0.1 mm 6 mps 746 mmHg 58%
    16:00 +7°C° 0.1 mm 6 mps 747 mmHg 55%
    17:00 +7°C° 0.1 mm 6 mps 747 mmHg 53%
    18:00 +5°C° 0.1 mm 6 mps 748 mmHg 50%
    19:00 +5°C° 0 mm 5 mps 748 mmHg 52%
    20:00 +3°C° 0 mm 5 mps 749 mmHg 53%
    21:00 +3°C° 0 mm 4 mps 749 mmHg 55%
    22:00 +3°C° 0 mm 4 mps 750 mmHg 58%
    23:00 +1°C° 0 mm 4 mps 750 mmHg 62%

    Tomorrow, 24 May, Thursday

    Time Temperature Precipitation Wind Pressure Humidity
    00:00 0°C° 0 mm 4 mps 751 mmHg 65%
    01:00 -1°C° 0 mm 4 mps 751 mmHg 68%
    02:00 -1°C° 0 mm 4 mps 751 mmHg 72%
    03:00 -2°C° 0 mm 4 mps 752 mmHg 75%
    04:00 -2°C° 0 mm 4 mps 752 mmHg 74%
    05:00 -2°C° 0 mm 4 mps 753 mmHg 73%
    06:00 -1°C° 0 mm 4 mps 753 mmHg 71%
    07:00 +1°C° 0 mm 3 mps 753 mmHg 64%
    08:00 +2°C° 0 mm 3 mps 753 mmHg 57%
    09:00 +4°C° 0 mm 3 mps 753 mmHg 50%
    10:00 +5°C° 0 mm 3 mps 753 mmHg 45%
    11:00 +7°C° 0 mm 3 mps 753 mmHg 40%
    12:00 +9°C° 0 mm 3 mps 753 mmHg 35%
    13:00 +10°C° 0 mm 3 mps 752 mmHg 32%
    14:00 +11°C° 0 mm 3 mps 751 mmHg 29%
    15:00 +12°C° 0 mm 3 mps 751 mmHg 26%
    16:00 +12°C° 0 mm 4 mps 751 mmHg 28%
    17:00 +12°C° 0 mm 4 mps 750 mmHg 30%
    18:00 +13°C° 0 mm 4 mps 750 mmHg 31%
    19:00 +11°C° 0 mm 4 mps 750 mmHg 39%
    20:00 +10°C° 0 mm 4 mps 749 mmHg 47%
    21:00 +8°C° 0 mm 4 mps 749 mmHg 55%
    22:00 +7°C° 0.3 mm 4 mps 749 mmHg 64%
    23:00 +6°C° 0.3 mm 4 mps 748 mmHg 73%

    Day after tomorrow, 25 May, Friday

    Time Temperature Precipitation Wind Pressure Humidity
    00:00 +5°C° 0.3 mm 4 mps 748 mmHg 82%
    01:00 +5°C° 0.4 mm 4 mps 747 mmHg 85%
    02:00 +5°C° 0.4 mm 4 mps 747 mmHg 87%
    03:00 +5°C° 0.4 mm 4 mps 746 mmHg 90%
    04:00 +5°C° 0.2 mm 4 mps 746 mmHg 91%
    05:00 +5°C° 0.2 mm 4 mps 746 mmHg 92%
    06:00 +5°C° 0.2 mm 4 mps 746 mmHg 92%
    07:00 +5°C° 0.4 mm 3 mps 746 mmHg 93%
    08:00 +7°C° 0.4 mm 3 mps 746 mmHg 93%
    09:00 +7°C° 0.4 mm 3 mps 747 mmHg 93%
    10:00 +7°C° 0.4 mm 3 mps 747 mmHg 90%
    11:00 +7°C° 0.4 mm 3 mps 748 mmHg 86%
    12:00 +7°C° 0.4 mm 3 mps 748 mmHg 83%
    13:00 +9°C° 0 mm 3 mps 748 mmHg 72%
    14:00 +10°C° 0 mm 3 mps 749 mmHg 61%
    15:00 +12°C° 0 mm 3 mps 749 mmHg 50%
    16:00 +12°C° 0 mm 3 mps 750 mmHg 46%
    17:00 +12°C° 0 mm 3 mps 750 mmHg 42%
    18:00 +13°C° 0 mm 2 mps 750 mmHg 37%
    19:00 +10°C° 0 mm 2 mps 751 mmHg 41%
    20:00 +9°C° 0 mm 2 mps 751 mmHg 44%
    21:00 +7°C° 0 mm 2 mps 752 mmHg 47%
    22:00 +6°C° 0 mm 2 mps 752 mmHg 49%
    23:00 +5°C° 0 mm 2 mps 752 mmHg 51%

    26 May, Saturday

    Time Temperature Precipitation Wind Pressure Humidity
    00:00 +4°C° 0 mm 2 mps 752 mmHg 53%
    01:00 +3°C° 0 mm 2 mps 752 mmHg 55%
    02:00 +3°C° 0 mm 2 mps 752 mmHg 56%
    03:00 +3°C° 0 mm 1 mps 753 mmHg 57%
    04:00 +4°C° 0 mm 1 mps 753 mmHg 56%
    05:00 +5°C° 0 mm 1 mps 753 mmHg 55%
    06:00 +5°C° 0 mm 1 mps 753 mmHg 54%
    07:00 +7°C° 0 mm 1 mps 753 mmHg 49%
    08:00 +9°C° 0 mm 1 mps 753 mmHg 44%
    09:00 +11°C° 0 mm 1 mps 754 mmHg 39%
    10:00 +12°C° 0 mm 1 mps 754 mmHg 35%
    11:00 +13°C° 0 mm 1 mps 753 mmHg 31%
    12:00 +14°C° 0 mm 1 mps 753 mmHg 28%
    13:00 +14°C° 0 mm 1 mps 753 mmHg 28%
    14:00 +14°C° 0 mm 1 mps 753 mmHg 27%
    15:00 +15°C° 0 mm 1 mps 753 mmHg 27%
    16:00 +14°C° 0 mm 1 mps 753 mmHg 30%
    17:00 +13°C° 0 mm 1 mps 753 mmHg 33%
    18:00 +13°C° 0 mm 1 mps 753 mmHg 36%
    19:00 +12°C° 0 mm 1 mps 753 mmHg 43%
    20:00 +10°C° 0 mm 1 mps 753 mmHg 50%
    21:00 +9°C° 0 mm 1 mps 753 mmHg 58%
    22:00 +8°C° 0 mm 1 mps 753 mmHg 62%
    23:00 +7°C° 0 mm 1 mps 753 mmHg 67%

    27 May, Sunday

    Time Temperature Precipitation Wind Pressure Humidity
    00:00 +5°C° 0 mm 2 mps 754 mmHg 71%
    01:00 +4°C° 0 mm 2 mps 754 mmHg 74%
    02:00 +3°C° 0 mm 2 mps 754 mmHg 77%
    03:00 +3°C° 0 mm 2 mps 754 mmHg 79%
    04:00 +3°C° 0 mm 2 mps 754 mmHg 75%
    05:00 +5°C° 0 mm 1 mps 755 mmHg 71%
    06:00 +6°C° 0 mm 1 mps 755 mmHg 67%
    07:00 +8°C° 0 mm 1 mps 755 mmHg 59%
    08:00 +9°C° 0 mm 2 mps 755 mmHg 50%
    09:00 +12°C° 0 mm 2 mps 756 mmHg 42%
    10:00 +13°C° 0 mm 2 mps 756 mmHg 38%
    11:00 +13°C° 0 mm 3 mps 755 mmHg 34%
    12:00 +14°C° 0 mm 3 mps 755 mmHg 30%
    13:00 +14°C° 0 mm 3 mps 755 mmHg 29%
    14:00 +15°C° 0 mm 4 mps 755 mmHg 28%
    15:00 +17°C° 0 mm 4 mps 754 mmHg 27%
    16:00 +17°C° 0 mm 4 mps 754 mmHg 28%
    17:00 +17°C° 0 mm 4 mps 754 mmHg 28%
    18:00 +17°C° 0 mm 4 mps 754 mmHg 29%
    19:00 +14°C° 0 mm 3 mps 754 mmHg 36%
    20:00 +13°C° 0 mm 2 mps 754 mmHg 43%
    21:00 +10°C° 0 mm 2 mps 753 mmHg 50%
    22:00 +9°C° 0 mm 2 mps 753 mmHg 53%
    23:00 +8°C° 0 mm 2 mps 753 mmHg 55%

    28 May, Monday

    Time Temperature Precipitation Wind Pressure Humidity
    00:00 +7°C° 0 mm 2 mps 753 mmHg 58%
    01:00 +6°C° 0 mm 2 mps 753 mmHg 61%
    02:00 +6°C° 0 mm 2 mps 753 mmHg 63%
    03:00 +6°C° 0 mm 2 mps 753 mmHg 66%
    04:00 +6°C° 0 mm 2 mps 753 mmHg 64%
    05:00 +7°C° 0 mm 2 mps 752 mmHg 63%
    06:00 +9°C° 0 mm 1 mps 752 mmHg 61%
    07:00 +12°C° 0 mm 2 mps 752 mmHg 54%
    08:00 +14°C° 0 mm 2 mps 752 mmHg 47%
    09:00 +16°C° 0 mm 2 mps 751 mmHg 41%
    10:00 +16°C° 0.1 mm 2 mps 751 mmHg 43%
    11:00 +16°C° 0.1 mm 3 mps 750 mmHg 45%
    12:00 +16°C° 0.1 mm 3 mps 749 mmHg 48%
    13:00 +14°C° 0.3 mm 3 mps 748 mmHg 54%
    14:00 +13°C° 0.3 mm 3 mps 748 mmHg 60%
    15:00 +13°C° 0.3 mm 3 mps 747 mmHg 66%
    16:00 +14°C° 0 mm 4 mps 747 mmHg 61%
    17:00 +14°C° 0 mm 5 mps 746 mmHg 57%
    18:00 +15°C° 0 mm 5 mps 745 mmHg 52%
    19:00 +14°C° 0 mm 5 mps 744 mmHg 56%
    20:00 +13°C° 0 mm 5 mps 743 mmHg 60%
    21:00 +12°C° 0 mm 4 mps 742 mmHg 65%
    22:00 +12°C° 0.1 mm 4 mps 741 mmHg 67%
    23:00 +12°C° 0.1 mm 5 mps 740 mmHg 70%
    Show more